Location: Austin
(30.3000°N, 97.7500°W)
Time: 23:05:23
(UTC-06:00)

H-2A R/B - Pass Details

Date: 03 December 2025
Orbit: 265 x 28129 km, 28.4° (Epoch: 03 December)

Event Time Altitude Azimuth Distance (km) Brightness Sun altitude
Exits shadow 06:07:33 15° 246° (WSW) 1,467 3.6 -13.7°
Maximum altitude 06:10:03 34° 183° (S) 1,327 3.9 -13.2°
Drops below altitude 10° 06:20:02 10° 123° (ESE) 5,561 8.3 -11.2°
Sets 06:30:59 0° 118° (ESE) 9,917 10.4 -8.9°
